OBJECT G, 67752

Orbit data source: Space-Track

You're viewing an Uncataloged Satellite

Recently launched and/or uncataloged satellites may have evolving metadata. Metadata may include but not limited to: Owner, Maufacturer, Bus, Motor, and Mission.

OBJECT G, 67752 is a Chinese satellite in SSO that was launched on Thu, 12 Feb 2026 UTC via a JIELONG-3 launch vehicle from the South China Sea Launch Area (SCSLA). Unknown objects in Earth's orbit typically refer to objects detected orbiting the Earth but have not yet been identified or cataloged. These objects could be anything from previously untracked satellites, spent rocket stages, debris from satellite collisions, or even natural meteoroids temporarily captured by Earth's gravity.

Loading next visibility...
Identifier
67752, 2026-027G
Orbit
SSO
Country
Flag of CNCN / PRC
Related business
None
Manufacturer
Unknown
Mission
Operational Civil Science
Bus & Motor
Unknown
Mass
Unknown
Launch date (UTC)
2026-02-12 (4 months ago)
Launch vehicle
JIELONG-3
Launch site
South China Sea Launch Area (SCSLA)
Object type
Unknown
Shape & HBR
Box + 1 Pan, 1.0 m
Radar Cross Section
0.445 m², Large (>1 m²)

Expand to show TLE details & history
Last TLE update: 7 hours ago

TLE from 7 hours ago
0 OBJECT G
1 67752U 26027G   26164.82128271  .00006141  00000-0  34752-3 0  9990
2 67752  97.5065 292.1856 0010914 259.1567 100.8436 15.13360571 18399
Epoch: 2026-06-13T19:42Z
TLE epoch observation values (Epoch: 2026-06-13T19:42:38.826Z)
Latitude
-0.00001°
Longitude
94.39295°
Altitude
530.464 km
Speed
7.597 km/s
True Right ascension
19h 28m 44s
True Declination
0° 00' 00"
Sunlit
Object was in full shadow at epoch
Visualization orbit readout
Latitude
Unknown
Longitude
Unknown
Altitude
Unknown
Speed
Unknown
Apparent Right ascension
Unknown
Apparent Declination
Unknown
Sunlit
N/A
Visualization observer readout
Local Sidereal Time
12:57:27
Azimuth
Unknown
Elevation
Unknown
Doppler factor
Unknown
Orbital elements
Apogee altitude
530.471 km
Perigee altitude
515.407 km
Semi-major axis
6,901.076 km
Eccentricity
0.00109
Inclination
97.5065°
RAAN
292.1856°
Arg. of periapsis
259.1567°
True anomaly
100.9664°
Mean anomaly
100.8436°
Eccentric anomaly
100.905°
Mean motion
3.78589 °/min
Orbital period
95.09 mins
BSTAR
0.00034752
Loading maneuver chart data...
Computing Atmospheric mass density...
Loading historical data...
Loading historical data...
Loading historical data...
Loading historical data...
Loading historical data...
Loading historical data...
Loading historical data...

Documentation

Showing up to 5 results
|